When you browse on this site, cookies collect data to enhance your experience and personalize the content and advertising you see.
Visit our Privacy Policy to learn more. By continuing to use the site, you agree to this use of cookies and data.
  • In Hungary
  • List of Countries
  • For 7 days
  • Water Temperature
  • Satellite Maps
  • Weather Map
  • News
  • Weather Widgets
  • user-avatar
    Login

    Hourly Weather Goroka

    Today, 17 January, Thursday

    Time Temperature Precipitation Wind Pressure Humidity
    00:00 +18°C° 0.1 mm 1 mps 622 mmHg 94%
    01:00 +18°C° 0.1 mm 1 mps 622 mmHg 94%
    02:00 +18°C° 0 mm 1 mps 621 mmHg 94%
    03:00 +16°C° 0 mm 1 mps 621 mmHg 94%
    04:00 +16°C° 0 mm 1 mps 621 mmHg 95%
    05:00 +16°C° 0 mm 1 mps 621 mmHg 94%
    06:00 +18°C° 0 mm 1 mps 621 mmHg 92%
    07:00 +18°C° 0 mm 1 mps 622 mmHg 91%
    08:00 +21°C° 0 mm 1 mps 623 mmHg 79%
    09:00 +24°C° 0 mm 1 mps 624 mmHg 67%
    10:00 +26°C° 0 mm 1 mps 625 mmHg 58%
    11:00 +26°C° 0.2 mm 1 mps 624 mmHg 59%
    12:00 +26°C° 0.2 mm 1 mps 624 mmHg 60%
    13:00 +26°C° 0.2 mm 1 mps 623 mmHg 61%
    14:00 +26°C° 0.6 mm 1 mps 623 mmHg 65%
    15:00 +25°C° 0.6 mm 1 mps 622 mmHg 69%
    16:00 +23°C° 0 mm 1 mps 622 mmHg 80%
    17:00 +20°C° 0.8 mm 0 mps 621 mmHg 85%
    18:00 +19°C° 0.8 mm 0 mps 621 mmHg 89%
    19:00 +18°C° 0.8 mm 0 mps 621 mmHg 93%
    20:00 +17°C° 0.3 mm 0 mps 621 mmHg 93%
    21:00 +17°C° 0.3 mm 0 mps 622 mmHg 94%
    22:00 +16°C° 0.3 mm 0 mps 622 mmHg 94%
    23:00 +16°C° 0 mm 0 mps 622 mmHg 94%

    Tomorrow, 18 January, Friday

    Time Temperature Precipitation Wind Pressure Humidity
    00:00 +16°C° 0 mm 0 mps 622 mmHg 94%
    01:00 +16°C° 0 mm 0 mps 621 mmHg 93%
    02:00 +16°C° 0 mm 0 mps 621 mmHg 93%
    03:00 +16°C° 0 mm 1 mps 621 mmHg 93%
    04:00 +16°C° 0 mm 1 mps 621 mmHg 93%
    05:00 +16°C° 0 mm 1 mps 621 mmHg 93%
    06:00 +18°C° 0 mm 1 mps 621 mmHg 93%
    07:00 +18°C° 0 mm 1 mps 622 mmHg 92%
    08:00 +21°C° 0 mm 1 mps 623 mmHg 81%
    09:00 +24°C° 0 mm 1 mps 624 mmHg 70%
    10:00 +25°C° 0 mm 0 mps 625 mmHg 58%
    11:00 +26°C° 0.5 mm 1 mps 624 mmHg 62%
    12:00 +26°C° 0.5 mm 1 mps 624 mmHg 65%
    13:00 +25°C° 0.5 mm 1 mps 623 mmHg 69%
    14:00 +25°C° 1.1 mm 1 mps 623 mmHg 72%
    15:00 +25°C° 1.1 mm 1 mps 622 mmHg 75%
    16:00 +24°C° 1.1 mm 1 mps 622 mmHg 78%
    17:00 +23°C° 0.9 mm 1 mps 622 mmHg 83%
    18:00 +19°C° 0.9 mm 0 mps 622 mmHg 88%
    19:00 +18°C° 0.9 mm 0 mps 622 mmHg 93%
    20:00 +17°C° 0.3 mm 0 mps 622 mmHg 93%
    21:00 +17°C° 0.3 mm 0 mps 622 mmHg 93%
    22:00 +17°C° 0.3 mm 0 mps 623 mmHg 94%
    23:00 +16°C° 0 mm 0 mps 623 mmHg 93%

    Day after tomorrow, 19 January, Saturday

    Time Temperature Precipitation Wind Pressure Humidity
    00:00 +16°C° 0 mm 0 mps 622 mmHg 93%
    01:00 +16°C° 0 mm 0 mps 622 mmHg 92%
    02:00 +15°C° 0.1 mm 0 mps 622 mmHg 92%
    03:00 +15°C° 0.1 mm 0 mps 621 mmHg 92%
    04:00 +16°C° 0.1 mm 1 mps 621 mmHg 92%
    05:00 +16°C° 0.1 mm 1 mps 621 mmHg 92%
    06:00 +18°C° 0.1 mm 1 mps 622 mmHg 91%
    07:00 +18°C° 0.1 mm 1 mps 622 mmHg 91%
    08:00 +19°C° 0 mm 0 mps 624 mmHg 81%
    09:00 +21°C° 0 mm 0 mps 625 mmHg 70%
    10:00 +24°C° 0 mm 0 mps 626 mmHg 60%
    11:00 +26°C° 0.4 mm 1 mps 625 mmHg 62%
    12:00 +26°C° 0.4 mm 1 mps 624 mmHg 64%
    13:00 +26°C° 0.4 mm 1 mps 624 mmHg 67%
    14:00 +25°C° 1.3 mm 1 mps 623 mmHg 70%
    15:00 +25°C° 1.3 mm 1 mps 623 mmHg 74%
    16:00 +24°C° 1.3 mm 1 mps 622 mmHg 78%
    17:00 +23°C° 1 mm 1 mps 622 mmHg 83%
    18:00 +22°C° 1 mm 1 mps 622 mmHg 88%
    19:00 +18°C° 1 mm 0 mps 622 mmHg 93%
    20:00 +18°C° 0.5 mm 0 mps 622 mmHg 94%
    21:00 +18°C° 0.5 mm 0 mps 623 mmHg 95%
    22:00 +18°C° 0.5 mm 0 mps 623 mmHg 96%
    23:00 +17°C° 0.1 mm 0 mps 623 mmHg 96%

    20 January, Sunday

    Time Temperature Precipitation Wind Pressure Humidity
    00:00 +17°C° 0.1 mm 0 mps 623 mmHg 96%
    01:00 +17°C° 0.1 mm 0 mps 622 mmHg 96%
    02:00 +17°C° 0.1 mm 0 mps 622 mmHg 96%
    03:00 +16°C° 0.1 mm 0 mps 622 mmHg 95%
    04:00 +16°C° 0.1 mm 0 mps 621 mmHg 95%
    05:00 +16°C° 0 mm 0 mps 622 mmHg 94%
    06:00 +16°C° 0 mm 0 mps 622 mmHg 94%
    07:00 +17°C° 0 mm 0 mps 622 mmHg 93%
    08:00 +19°C° 0 mm 0 mps 623 mmHg 84%
    09:00 +21°C° 0 mm 0 mps 624 mmHg 75%
    10:00 +24°C° 0 mm 0 mps 625 mmHg 66%
    11:00 +24°C° 0.9 mm 0 mps 625 mmHg 68%
    12:00 +26°C° 0.9 mm 1 mps 624 mmHg 70%
    13:00 +26°C° 0.9 mm 1 mps 623 mmHg 72%
    14:00 +25°C° 1.4 mm 1 mps 623 mmHg 76%
    15:00 +24°C° 1.4 mm 1 mps 622 mmHg 79%
    16:00 +23°C° 1.4 mm 1 mps 621 mmHg 83%
    17:00 +22°C° 0.9 mm 1 mps 622 mmHg 86%
    18:00 +19°C° 0.9 mm 0 mps 622 mmHg 90%
    19:00 +18°C° 0.9 mm 0 mps 622 mmHg 93%
    20:00 +18°C° 0.9 mm 0 mps 622 mmHg 94%
    21:00 +18°C° 0.9 mm 0 mps 623 mmHg 94%
    22:00 +18°C° 0.9 mm 0 mps 623 mmHg 95%
    23:00 +18°C° 1.1 mm 0 mps 623 mmHg 95%

    21 January, Monday

    Time Temperature Precipitation Wind Pressure Humidity
    00:00 +17°C° 1.1 mm 0 mps 623 mmHg 95%
    01:00 +17°C° 1.1 mm 0 mps 622 mmHg 95%
    02:00 +17°C° 0.6 mm 0 mps 622 mmHg 95%
    03:00 +17°C° 0.6 mm 0 mps 622 mmHg 95%
    04:00 +17°C° 0.6 mm 0 mps 621 mmHg 94%
    05:00 +17°C° 0.2 mm 0 mps 621 mmHg 94%
    06:00 +17°C° 0.2 mm 0 mps 622 mmHg 94%
    07:00 +17°C° 0.2 mm 0 mps 622 mmHg 93%
    08:00 +19°C° 0 mm 0 mps 623 mmHg 85%
    09:00 +21°C° 0 mm 0 mps 624 mmHg 77%
    10:00 +23°C° 0 mm 0 mps 625 mmHg 68%
    11:00 +25°C° 0.7 mm 1 mps 624 mmHg 70%
    12:00 +25°C° 0.7 mm 1 mps 623 mmHg 72%
    13:00 +25°C° 0.7 mm 1 mps 623 mmHg 73%
    14:00 +24°C° 1.3 mm 1 mps 622 mmHg 77%
    15:00 +24°C° 1.3 mm 1 mps 622 mmHg 80%
    16:00 +23°C° 1.3 mm 1 mps 621 mmHg 83%
    17:00 +22°C° 1.5 mm 1 mps 621 mmHg 87%
    18:00 +21°C° 1.5 mm 1 mps 622 mmHg 90%
    19:00 +18°C° 1.5 mm 0 mps 622 mmHg 94%
    20:00 +18°C° 1.4 mm 0 mps 622 mmHg 95%
    21:00 +18°C° 1.4 mm 0 mps 623 mmHg 95%
    22:00 +18°C° 1.4 mm 0 mps 623 mmHg 96%
    23:00 +18°C° 1.9 mm 0 mps 623 mmHg 96%

    22 January, Tuesday

    Time Temperature Precipitation Wind Pressure Humidity
    00:00 +18°C° 1.9 mm 0 mps 622 mmHg 96%
    01:00 +17°C° 1.9 mm 0 mps 622 mmHg 96%
    02:00 +17°C° 1.3 mm 0 mps 622 mmHg 96%
    03:00 +17°C° 1.3 mm 0 mps 621 mmHg 96%
    04:00 +17°C° 1.3 mm 0 mps 621 mmHg 95%
    05:00 +17°C° 0.4 mm 0 mps 621 mmHg 95%
    06:00 +17°C° 0.4 mm 0 mps 622 mmHg 94%
    07:00 +16°C° 0.4 mm 0 mps 622 mmHg 93%
    08:00 +18°C° 0.3 mm 0 mps 623 mmHg 87%
    09:00 +19°C° 0.3 mm 0 mps 623 mmHg 81%
    10:00 +21°C° 0.3 mm 0 mps 624 mmHg 75%
    11:00 +22°C° 0.5 mm 0 mps 624 mmHg 73%
    12:00 +22°C° 0.5 mm 0 mps 623 mmHg 71%
    13:00 +25°C° 0.5 mm 1 mps 623 mmHg 69%
    14:00 +22°C° 0.6 mm 0 mps 622 mmHg 71%
    15:00 +22°C° 0.6 mm 0 mps 622 mmHg 72%
    16:00 +22°C° 0.6 mm 0 mps 622 mmHg 74%
    17:00 +20°C° 0.3 mm 0 mps 622 mmHg 79%
    18:00 +19°C° 0.3 mm 0 mps 622 mmHg 84%
    19:00 +18°C° 0.3 mm 0 mps 621 mmHg 89%
    20:00 +18°C° 0.2 mm 0 mps 622 mmHg 90%
    21:00 +17°C° 0.2 mm 0 mps 622 mmHg 90%
    22:00 +17°C° 0.2 mm 0 mps 623 mmHg 91%
    23:00 +17°C° 0.5 mm 0 mps 622 mmHg 91%
    Show more